Weather Service Report


008 
ASUS42 KRAH 231210
RWRRAH
NORTH CAROLINA WEATHER ROUNDUP
NATIONAL WEATHER SERVICE RALEIGH NC
800 AM EDT THU OCT 23 2014

NOTE: "FAIR" INDICATES FEW OR NO CLOUDS BELOW 12,000 FEET WITH NO
SIGNIFICANT WEATHER AND/OR OBSTRUCTIONS TO VISIBILITY.

NCZ001-053-055-056-065-067-231300-
WESTERN NORTH CAROLINA
  
CITY           SKY/WX    TMP DP  RH WIND       PRES   REMARKS
ASHEVILLE      CLEAR     43  35  73 N8        30.14S                  
JEFFERSON      CLEAR     40  32  72 NW7G18    30.10R                  
MORGANTON      CLEAR     33  32  99 CALM      30.14R                  
HICKORY        CLEAR     42  36  79 W5        30.08S                  
RUTHERFORDTON  CLEAR     37  35  92 CALM      30.11S                  
MOUNT AIRY     CLEAR     50  39  67 NW13G21   30.07F                  
BOONE          CLEAR     40  34  80 NW14G20   30.12S WCI  32          
$$
 
NCZ021-022-025-041-071-084-088-231300-
CENTRAL NORTH CAROLINA
  
CITY           SKY/WX    TMP DP  RH WIND       PRES   REMARKS
CHARLOTTE      CLEAR     41  37  86 NW6       30.09S                  
GREENSBORO     CLEAR     42  37  82 W6        30.03S                  
WINSTON-SALEM  CLEAR     49  37  63 W9        30.05S                  
RALEIGH-DURHAM CLEAR     43  38  82 CALM      30.02S                  
FORT BRAGG     CLEAR     48  40  75 NW8       30.02S                  
FAYETTEVILLE   CLEAR     51  40  65 NW12      30.02S                  
BURLINGTON     CLEAR     47  38  71 W6        30.03S                  
LAURINBURG     CLEAR     42  39  89 W6        30.06R                  
$$
 
NCZ011-015-027-028-043-044-047-080-103-231300-
NORTHEASTERN NORTH CAROLINA
  
CITY           SKY/WX    TMP DP  RH WIND       PRES   REMARKS
ROCKY MT-WILSO CLEAR     48  41  76 W7        29.99S                  
GREENVILLE     CLEAR     46  43  87 NW5       30.00S                  
WASHINGTON     CLEAR     47  42  82 CALM      29.98S                  
ELIZABETH CITY CLOUDY    52  43  71 W14       29.91S                  
MANTEO         CLOUDY    54  44  70 NW15G26   29.90R                  
CAPE HATTERAS  CLEAR     54  46  74 NW13G26   29.91R                  
$$
 
NCZ078-087-090-091-093-098-101-231300-
SOUTHEASTERN NORTH CAROLINA
  
CITY           SKY/WX    TMP DP  RH WIND       PRES   REMARKS
LUMBERTON      CLEAR     43  41  93 W5        30.04R                  
GOLDSBORO      CLEAR     47  46  97 CALM      29.99S                  
KINSTON        CLEAR     48  43  81 W5        30.01R                  
KENANSVILLE    CLEAR     46  42  84 NW3       30.02S                  
NEW BERN       CLEAR     50  43  77 W9        30.00R                  
CHERRY POINT   CLEAR     50  43  77 NW12      29.99S                  
BEAUFORT       CLEAR     52  45  77 NW16      29.97S                  
JACKSONVILLE   CLEAR     47  43  86 NW6       30.00R                  
WILMINGTON     CLEAR     47  42  83 NW6       30.01R                  
$$


Return to Home page


Western Regional Climate Center, wrcc@dri.edu